Weather History for KUZA - December, 2012

Change the Weather History Date:

Monday, December 17, 2012

  Actual Average (KCLT) Record (KCLT)
Temperature  
Mean Temperature 55 °F 42 °F  
Max Temperature 57 °F 52 °F 73 °F (1956)
Min Temperature 53 °F 32 °F 14 °F (1901)
Degree Days  
Heating Degree Days 10 23  
Month to date heating degree days 362  
Since 1 July heating degree days 998  
Cooling Degree Days 0 0  
Month to date cooling degree days 0  
Year to date cooling degree days 1517  
Growing Degree Days 5 (Base 50)    
Moisture  
Dew Point 54 °F    
Average Humidity 98    
Maximum Humidity 100    
Minimum Humidity 93    
Precipitation  
Precipitation 0.23 in 0.10 in 1.30 in (1888)
Month to date precipitation 1.79  
Year to date precipitation 40.17  
Snow  
Snow 0.00 in 0.10 in 10.40 in (1930)
Month to date snowfall 0.1  
Since 1 July snowfall 0.2  
Snow Depth -    
Sea Level Pressure  
Sea Level Pressure 29.80 in    
Wind  
Wind Speed 5 mph (SW)    
Max Wind Speed 13 mph    
Max Gust Speed -    
Visibility 8 miles    
Events Rain    
T = Trace of Precipitation, MM = Missing Value Source: NWS Daily Summary

Daily Weather History Graph

Daily Weather History Graph

Search for Another Location

Airport or City:

Trip Planner

Search our weather history database for the weather conditions in past years. The results will help you decide how hot, cold, wet, or windy it might be!

Date:

Astronomy

Dec. 17, 2012 Rise Set
Actual Time 7:26 AM EST 5:14 PM EST
Civil Twilight 6:58 AM EST 5:43 PM EST
Nautical Twilight 6:26 AM EST 6:14 PM EST
Astronomical Twilight 5:55 AM EST 6:45 PM EST
Moon 10:43 AM EST (12/17) 10:24 PM EST (12/17)
Length of Visible Light 10h 44m
Length of Day
9h 48m
Waxing Crescent, 24% of the Moon is Illuminated
Dec 17
Waxing Crescent
Dec 20
First Quarter
Dec 28
Full
Jan 4
Last Quarter
Jan 11
New

Hourly Weather History & Observations

Time (EST) Temp. Dew Point Humidity Pressure Visibility Wind Dir Wind Speed Gust Speed Precip Events Conditions
12:01 AM 54.0 °F 54.0 °F 100% 29.93 in 3.0 mi NNW 3.5 mph - 0.01 in Rain Rain
12:17 AM 54.0 °F 54.0 °F 100% 29.92 in 4.0 mi NNW 4.6 mph - 0.04 in Rain Light Rain
12:54 AM 54.0 °F 54.0 °F 100% 29.89 in 5.0 mi Calm Calm - 0.10 in Rain Light Rain
1:54 AM 53.1 °F 53.1 °F 100% 29.88 in 3.0 mi SW 4.6 mph - 0.03 in Rain Light Rain
2:54 AM 54.0 °F 53.1 °F 97% 29.85 in 6.0 mi Variable 3.5 mph - 0.04 in Rain Light Rain
3:54 AM 54.0 °F 53.1 °F 97% 29.78 in 7.0 mi Variable 6.9 mph - 0.01 in Rain Light Rain
4:42 AM 53.1 °F 52.0 °F 96% 29.83 in 10.0 mi NW 6.9 mph - 0.00 in   Mostly Cloudy
4:51 AM 53.6 °F 53.6 °F 100% 29.81 in 10.0 mi Calm Calm - 0.00 in   Mostly Cloudy
4:54 AM 53.1 °F 53.1 °F 100% 29.82 in 10.0 mi WNW 3.5 mph - 0.00 in   Mostly Cloudy
5:54 AM 53.1 °F 53.1 °F 100% 29.84 in 10.0 mi Calm Calm - N/A   Overcast
6:54 AM 53.1 °F 53.1 °F 100% 29.86 in 10.0 mi Calm Calm - N/A   Overcast
7:54 AM 53.1 °F 53.1 °F 100% 29.86 in 6.0 mi Calm Calm - N/A   Overcast
8:34 AM 54.0 °F 53.1 °F 97% 29.87 in 7.0 mi SSW 3.5 mph - N/A   Overcast
8:54 AM 54.0 °F 54.0 °F 100% 29.85 in 6.0 mi SSW 3.5 mph - N/A   Overcast
9:54 AM 55.0 °F 54.0 °F 96% 29.87 in 10.0 mi SSW 8.1 mph - N/A   Overcast
10:22 AM 55.0 °F 54.0 °F 96% 29.87 in 10.0 mi SW 8.1 mph - N/A   Overcast
10:54 AM 55.9 °F 54.0 °F 93% 29.85 in 10.0 mi SSW 8.1 mph - N/A   Mostly Cloudy
11:54 AM 55.9 °F 54.0 °F 93% 29.82 in 9.0 mi SSW 8.1 mph - 0.00 in Rain Light Rain
12:54 PM 55.9 °F 55.0 °F 97% 29.80 in 8.0 mi SW 6.9 mph - 0.02 in Rain Light Rain
1:54 PM 55.9 °F 55.0 °F 97% 29.78 in 10.0 mi South 5.8 mph - 0.00 in   Overcast
2:54 PM 55.9 °F 55.0 °F 97% 29.75 in 9.0 mi SSW 8.1 mph - 0.01 in Rain Light Rain
3:54 PM 55.9 °F 55.9 °F 100% 29.73 in 9.0 mi South 8.1 mph - 0.00 in   Overcast
4:54 PM 55.9 °F 55.9 °F 100% 29.71 in 8.0 mi SSW 8.1 mph - N/A   Overcast
7:36 PM 55.9 °F 55.9 °F 100% 29.71 in 9.0 mi SSW 8.1 mph - N/A   Overcast
7:54 PM 57.0 °F 55.9 °F 96% 29.71 in 6.0 mi SW 11.5 mph - 0.00 in Rain Light Rain
8:54 PM 57.0 °F 55.9 °F 96% 29.70 in 10.0 mi SW 9.2 mph - 0.02 in   Overcast
9:54 PM 57.0 °F 55.9 °F 96% 29.70 in 10.0 mi SW 9.2 mph - N/A   Overcast
10:46 PM 55.9 °F 55.0 °F 97% 29.70 in 10.0 mi SW 10.4 mph - N/A   Scattered Clouds
10:54 PM 55.9 °F 55.0 °F 97% 29.70 in 10.0 mi SW 9.2 mph - N/A   Scattered Clouds
11:25 PM 55.9 °F 55.0 °F 97% 29.72 in 10.0 mi SW 11.5 mph - N/A   Mostly Cloudy
11:49 PM 55.4 °F 53.6 °F 94% 29.71 in 10.0 mi SW 12.7 mph - N/A   Scattered Clouds
11:54 PM 55.9 °F 54.0 °F 93% 29.71 in 10.0 mi SW 11.5 mph - N/A   Partly Cloudy